CZ-6A DEB, 54983

Orbit data source: Space-Track

CZ-6A DEB, 54983 is space debris in SSO originally from a launch on Fri, 11 Nov 2022 UTC launched from the Taiyaun Space Center, China (TSC). Debris objects in space refer to the collection of defunct objects orbiting the Earth. Examples of debris include non-operational satellites, rocket bodies, and fragments generated from explosions, collisions, or faulty payload assembly.

Loading next visibility...
Identifier
54983, 2022-151TY
Orbit
SSO
Country
Flag of CNCN / PRC
Related business
Manufacturer
SAST
Mission
Spacecraft
Bus & Motor
Unknown
Mass
Unknown
Launch date (UTC)
2022-11-11 (4 years ago)
Launch vehicle
Unknown
Launch site
Taiyaun Space Center, China (TSC)
Object type
Payload
Rocket body
Debris
Shape & HBR
Unknown shape, 0.1 m
Radar Cross Section
Medium (>0.1 m² and <1 m²)

Expand to show TLE details & history
Last TLE update: 2 days ago

TLE from 2 days ago
0 CZ-6A DEB
1 54983U 22151TY  26171.16574956  .00000091  00000-0  13159-3 0  9992
2 54983  98.9098  81.5594 0261209 232.2392 125.4830 13.63945532178133
Epoch: 2026-06-20T03:58Z
TLE epoch observation values (Epoch: 2026-06-20T03:58:40.761Z)
Latitude
-0.00007°
Longitude
113.50529°
Altitude
1,139.705 km
Speed
7.226 km/s
True Right ascension
05h 26m 14s
True Declination
0° 00' 00"
Sunlit
Object was in daylight at epoch
Visualization orbit readout
Latitude
Unknown
Longitude
Unknown
Altitude
Unknown
Speed
Unknown
Apparent Right ascension
Unknown
Apparent Declination
Unknown
Sunlit
N/A
Visualization observer readout
Local Sidereal Time
21:34:29
Azimuth
Unknown
Elevation
Unknown
Doppler factor
Unknown
Orbital elements
Apogee altitude
1,211.839 km
Perigee altitude
825.418 km
Semi-major axis
7,396.765 km
Eccentricity
0.02612
Inclination
98.9098°
RAAN
81.5594°
Arg. of periapsis
232.2392°
True anomaly
127.87429°
Mean anomaly
125.483°
Eccentric anomaly
126.68321°
Mean motion
3.41178 °/min
Orbital period
105.52 mins
BSTAR
0.00013159
Loading maneuver chart data...
Computing Atmospheric mass density...
Loading historical data...
Loading historical data...
Loading historical data...
Loading historical data...
Loading historical data...
Loading historical data...
Loading historical data...

Documentation

Showing up to 5 results
|